Location: Staunton
(38.1490°N, 79.0720°W)
Time: 00:00:28
(UTC-05:00)

ISS - Pass Details

Date: 19 January 2021
Orbit: 418 x 421 km, 51.6° (Epoch: 23 January)

Event Time Altitude Azimuth Distance (km) Brightness Sun altitude
Rises 19:37:39 0° 262° (W) 2,361 1.4 -25.8°
Reaches altitude 10° 19:40:02 10° 277° (W) 1,500 0.0 -26.3°
Enters shadow 19:41:45 20° 305° (NW) 1,044 -1.3 -26.6°
